Location: Recife
(8.0585°S, 34.8848°W)
Time: 07:56:41
(UTC-03:00)

Courier 1B - Pass Details

Date: 21 April 2026
Orbit: 962 x 1209 km, 28.3° (Epoch: 13 May)

Event Time Altitude Azimuth Distance (km) Brightness Sun altitude
Rises 05:39:31 0° 259° (W) 3,955 10.0 3.5°
Reaches altitude 10° 05:42:58 10° 245° (WSW) 3,038 9.5 4.3°
Maximum altitude 05:48:40 23° 195° (SSW) 2,284 9.2 5.7°
Drops below altitude 10° 05:54:34 10° 146° (SE) 3,135 10.5 7.1°
Sets 05:58:12 0° 132° (SE) 4,113 11.3 8.0°
